Snowfall_Accumulation
0.0 0.1 0.7 0.1 0.0 0.0 0.0 0.2 0.1 0.0 0.0 0.0 0.0 0.0 0.0 0.0 0.0 0.0 0.0 0.0 0.0 0.0 0.0 0.0 0.0 0.0 0.0 0.0 0.0 0.0 0.0 0.0 0.0 0.0 0.0 0.0 0.0 0.0 0.0 0.0 0.0 0.0 0.0 0.0
0.2 0.2 0.0 0.0 0.0 0.0 0.1 0.6 0.5 0.0 0.0 0.0 0.0 0.0 0.0 0.0 0.0 0.0 0.0 0.0 0.0 0.0 0.0 0.0 0.0 0.0 0.0 0.0 0.0 0.0 0.0 0.0 0.0 0.0 0.0 0.0 0.0 0.0 0.0 0.0 0.0 0.0 0.0 0.0
0.3 0.0 0.0 0.0 0.1 0.7 0.4 0.7 0.2 0.0 0.0 0.0 0.0 0.0 0.0 0.0 0.0 0.0 0.0 0.0 0.0 0.0 0.0 0.0 0.0 0.0 0.0 0.0 0.0 0.0 0.0 0.0 0.0 0.0 0.0 0.0 0.0 0.0 0.0 0.0 0.0 0.0 0.0 0.0
0.1 0.0 0.0 0.0 0.4 0.1 3.5 0.0 0.0 0.2 1.0 1.6 0.0 3.4 0.0 0.0 0.0 0.0 0.0 0.0 0.0 0.0 0.0 0.0 0.0 0.0 0.0 0.0 0.0 0.0 0.0 0.0 0.0 0.0 0.0 0.0 0.0 0.0 0.0 0.0 0.0 0.0 0.0 0.0
0.5 0.0 0.2 3.3 0.1 0.0 3.9 0.0 0.3 0.6 1.7 1.1 0.2 3.1 0.0 0.0 0.0 0.0 0.0 0.0 0.0 0.0 0.0 0.0 0.0 0.0 0.0 0.0 0.0 0.0 0.0 0.0 0.0 0.0 0.0 0.0 0.0 0.0 0.0 0.0 0.0 0.0 0.0 0.0
0.5 0.0 0.9 0.5 0.0 0.3 0.2 0.9 0.2 0.8 1.4 15.8 0.0 0.1 0.0 0.0 0.0 0.0 0.0 0.0 0.0 0.0 0.0 0.0 0.0 0.0 0.0 0.0 0.0 0.0 0.0 0.0 0.0 0.0 0.0 0.0 0.0 0.0 0.0 0.0 0.0 0.0 0.0 0.0
0.2 0.3 0.1 0.1 1.3 0.1 1.2 2.3 16.4 23.0 29.6 10.2 0.0 0.2 0.0 0.0 0.0 0.0 0.0 0.0 0.0 0.0 0.0 0.0 0.0 0.0 0.0 0.0 0.0 0.0 0.0 0.0 0.0 0.0 0.0 0.0 0.0 0.0 0.0 0.0 0.0 0.0 0.0 0.0
5.1 8.0 2.0 1.2 1.8 4.1 0.7 2.0 5.1 7.5 6.7 2.7 0.0 4.6 0.0 0.0 0.0 0.0 0.0 0.0 0.0 0.0 0.0 0.0 0.0 0.0 0.0 0.0 0.0 0.0 0.0 0.0 0.0 0.0 0.0 0.0 0.0 0.0 0.0 0.0 0.0 0.0 0.0 0.0
7.3 3.7 0.2 0.9 1.0 0.4 1.6 2.9 0.0 3.9 3.2 2.2 1.8 0.1 0.0 0.0 0.0 0.0 0.0 0.0 0.0 0.0 0.0 0.0 0.0 0.0 0.0 0.0 0.0 0.0 0.0 0.0 0.0 0.0 0.0 0.0 0.0 0.0 0.0 0.0 0.0 0.0 0.0 0.0
3.8 10.6 0.0 0.1 1.5 0.4 0.7 0.2 3.5 4.2 13.4 6.7 1.1 1.1 4.6 1.6 0.9 0.0 0.0 0.0 0.0 0.0 0.0 0.0 0.0 0.0 0.0 0.0 0.0 0.0 0.0 0.0 0.0 0.0 0.0 0.0 0.0 0.0 0.0 0.0 0.0 0.0 0.0 0.0
0.7 5.8 1.6 0.5 6.4 5.2 1.0 1.2 0.9 1.4 4.4 10.4 6.4 6.3 5.8 0.7 0.1 0.0 0.0 0.0 0.0 0.0 0.0 0.0 0.0 0.0 0.0 0.0 0.0 0.0 0.0 0.0 0.0 0.0 0.0 0.0 0.0 0.0 0.0 0.0 0.0 0.0 0.0 0.0
0.5 4.3 9.5 8.9 4.1 1.0 0.5 4.2 2.5 8.2 5.1 4.3 5.7 4.9 2.6 1.5 0.3 0.0 0.0 0.0 0.0 0.0 0.0 0.0 0.0 0.0 0.0 0.0 0.0 0.0 0.0 0.0 0.0 0.0 0.0 0.0 0.0 0.0 0.0 0.0 0.0 0.0 0.0 0.0
2.4 1.8 9.6 8.3 4.5 0.3 1.9 1.6 2.2 1.1 2.3 6.5 9.4 8.0 2.3 1.9 0.9 0.0 0.0 0.0 0.0 0.0 0.0 0.0 0.0 0.0 0.0 0.0 0.0 0.0 0.0 0.0 0.0 0.0 0.0 0.0 0.0 0.0 0.0 0.0 0.0 0.0 0.0 0.0
nan 2.0 6.0 11.7 9.9 7.3 6.9 2.2 1.0 2.0 15.6 9.0 6.8 6.1 3.8 3.2 2.0 0.6 0.5 0.1 0.0 0.0 0.0 0.0 0.0 0.0 0.0 0.0 0.0 0.0 0.0 0.0 0.0 0.0 0.0 0.0 0.0 0.0 0.0 0.0 0.0 0.0 0.0 0.0
1.0 6.8 4.1 6.0 5.9 8.0 8.2 4.8 2.1 4.4 6.9 6.6 7.7 6.5 5.7 4.3 2.4 1.7 1.1 0.3 0.1 0.0 0.0 0.0 0.0 0.0 0.0 0.0 0.0 0.0 0.0 0.0 0.0 0.0 0.0 0.0 0.0 0.0 0.0 0.0 0.0 0.0 0.1 0.3
0.9 6.6 4.1 5.7 4.9 7.5 7.7 4.1 3.0 1.7 2.7 3.0 3.8 4.8 5.6 4.2 0.9 1.5 1.8 0.9 0.7 0.1 0.1 0.0 0.0 0.0 0.0 0.0 0.0 0.0 0.0 0.0 0.0 0.0 0.0 0.0 0.0 0.0 0.1 0.1 0.3 0.6 1.7 2.1
2.4 5.9 8.7 17.6 3.8 2.5 15.1 14.4 6.3 7.2 6.5 3.1 6.7 12.7 8.7 7.9 3.7 3.2 2.5 1.5 1.5 1.6 0.7 1.1 1.1 0.5 0.3 0.3 0.1 0.3 0.4 0.0 0.0 0.0 0.0 0.0 0.0 0.3 0.7 0.6 0.7 1.9 2.8 2.0
2.1 4.4 5.1 19.5 7.9 44.7 15.8 7.2 7.0 14.9 8.7 8.3 6.4 9.4 9.9 11.3 7.8 5.1 3.9 2.4 2.7 2.6 2.5 2.1 2.0 1.3 1.1 0.4 0.6 0.1 0.0 0.1 0.2 0.5 0.5 0.3 0.3 0.9 1.0 0.9 1.4 1.6 1.6 1.6
1.0 3.3 22.0 36.7 22.5 5.7 1.3 10.4 13.1 9.6 14.8 11.9 10.7 8.8 11.5 4.6 0.5 8.6 8.7 6.5 6.8 5.2 4.1 3.7 3.5 3.9 1.4 2.2 1.5 1.0 1.5 0.9 0.8 2.0 2.0 2.0 1.3 1.5 1.1 1.2 1.2 1.5 1.5 1.5
0.3 1.2 3.9 25.4 28.5 33.8 11.1 4.3 1.6 3.7 15.5 15.0 17.6 16.4 8.6 0.0 7.2 18.7 13.7 7.7 7.8 6.5 5.0 4.6 3.7 2.7 1.8 2.1 0.9 0.3 0.5 0.5 0.9 1.0 1.1 1.2 1.0 1.0 1.1 0.8 0.9 0.9 0.6 0.5
10.8 13.2 25.7 20.3 21.9 12.6 4.8 0.8 0.0 9.8 18.9 17.7 16.0 15.2 2.0 5.2 8.1 11.6 6.7 4.9 4.7 4.1 4.0 2.7 2.1 2.2 1.8 1.4 1.7 1.4 1.0 1.4 0.6 0.5 0.3 0.3 0.3 0.8 0.3 0.4 0.3 0.5 0.6 0.3
6.4 13.7 25.5 16.7 23.3 38.3 2.2 0.0 5.8 12.3 9.6 10.9 8.7 6.3 5.7 8.3 7.9 5.6 4.4 4.5 3.3 3.3 1.8 1.2 0.5 0.3 0.2 0.1 0.1 0.2 0.3 0.4 0.6 0.8 0.9 1.1 1.7 1.0 0.9 2.8 1.5 2.3 1.8 2.0
6.2 2.3 5.3 3.4 7.5 4.1 3.6 4.3 5.1 5.6 5.6 5.3 3.0 2.2 0.9 0.6 1.0 0.2 0.1 0.0 0.0 0.0 0.0 0.1 0.2 0.2 0.2 0.5 0.5 0.8 0.9 0.9 1.6 2.8 4.3 3.8 2.9 2.4 2.3 3.6 2.4 4.1 2.8 4.1
0.4 0.0 1.2 2.1 1.7 3.2 4.1 2.3 2.4 2.3 0.8 0.2 0.0 0.0 0.0 0.0 0.0 0.0 0.0 0.0 0.0 0.1 0.1 0.2 0.4 0.6 0.6 0.5 0.6 0.5 0.8 1.2 5.4 5.2 2.7 1.9 2.4 1.5 1.8 2.5 3.0 4.5 4.4 4.1
0.3 0.1 0.2 1.2 1.0 1.8 1.0 0.7 1.0 1.2 1.0 0.2 0.0 0.0 0.0 0.0 0.0 0.0 0.1 0.1 0.1 0.1 0.3 0.6 0.7 0.7 0.7 0.7 0.8 1.6 1.6 2.3 2.8 3.3 2.1 2.5 3.2 3.2 2.2 2.0 3.2 2.8 1.3 3.5
0.1 0.3 0.5 1.5 0.8 0.7 0.3 0.0 0.0 0.0 0.1 0.0 0.0 0.0 0.1 0.0 0.0 0.1 0.2 0.1 0.2 0.4 0.6 1.0 1.3 1.3 1.4 2.0 2.4 3.4 4.4 3.7 4.2 2.3 3.8 3.3 3.2 3.2 3.0 3.4 4.3 nan nan nan
Water_Equivalent
0.00 0.01 0.17 0.02 0.00 0.00 0.00 0.04 0.01 0.00 0.00 0.00 0.00 0.00 0.00 0.00 0.00 0.00 0.00 0.00 0.00 0.00 0.00 0.00 0.00 0.00 0.00 0.00 0.00 0.00 0.00 0.00 0.00 0.00 0.00 0.00 0.00 0.00 0.00 0.00 0.00 0.00 0.00 0.00
0.05 0.03 0.00 0.00 0.00 0.00 0.02 0.08 0.08 0.00 0.00 0.00 0.00 0.00 0.00 0.00 0.00 0.00 0.00 0.00 0.00 0.00 0.00 0.00 0.00 0.00 0.00 0.00 0.00 0.00 0.00 0.00 0.00 0.00 0.00 0.00 0.00 0.00 0.00 0.00 0.00 0.00 0.00 0.00
0.07 0.00 0.00 0.00 0.02 0.09 0.06 0.10 0.02 0.01 0.00 0.00 0.00 0.01 0.00 0.00 0.00 0.00 0.00 0.00 0.00 0.00 0.00 0.00 0.00 0.00 0.00 0.00 0.00 0.00 0.00 0.00 0.00 0.00 0.00 0.00 0.00 0.00 0.00 0.00 0.00 0.00 0.00 0.00
0.02 0.00 0.00 0.00 0.06 0.03 0.49 0.00 0.00 0.05 0.20 0.24 0.00 0.71 0.00 0.00 0.00 0.00 0.00 0.00 0.00 0.00 0.00 0.00 0.00 0.00 0.00 0.00 0.00 0.00 0.00 0.00 0.00 0.00 0.00 0.00 0.00 0.00 0.00 0.00 0.00 0.00 0.00 0.00
0.09 0.01 0.04 0.48 0.02 0.01 0.55 0.00 0.05 0.10 0.29 0.15 0.02 0.37 0.00 0.00 0.00 0.00 0.00 0.00 0.00 0.00 0.00 0.00 0.00 0.00 0.00 0.00 0.00 0.00 0.00 0.00 0.00 0.00 0.00 0.00 0.00 0.00 0.00 0.00 0.00 0.00 0.00 0.00
0.10 0.00 0.18 0.10 0.00 0.05 0.04 0.14 0.03 0.13 0.25 2.57 0.01 0.01 0.00 0.00 0.00 0.00 0.00 0.00 0.00 0.00 0.00 0.00 0.00 0.00 0.00 0.00 0.00 0.00 0.00 0.00 0.00 0.00 0.00 0.00 0.00 0.00 0.00 0.00 0.00 0.00 0.00 0.00
0.06 0.06 0.02 0.01 0.23 0.01 0.24 0.34 2.66 3.81 4.55 1.63 0.00 0.04 0.00 0.00 0.00 0.00 0.00 0.00 0.00 0.00 0.00 0.00 0.00 0.00 0.00 0.00 0.00 0.00 0.00 0.00 0.00 0.00 0.00 0.00 0.00 0.00 0.00 0.00 0.00 0.00 0.00 0.00
0.88 1.54 0.37 0.30 0.29 0.53 0.11 0.29 0.79 0.91 0.95 0.43 0.00 0.89 0.00 0.00 0.00 0.00 0.00 0.00 0.00 0.00 0.00 0.00 0.00 0.00 0.00 0.00 0.00 0.00 0.00 0.00 0.00 0.00 0.00 0.00 0.00 0.00 0.00 0.00 0.00 0.00 0.00 0.00
0.98 0.61 0.04 0.19 0.23 0.08 0.23 0.47 0.00 0.62 0.63 0.38 0.42 0.03 0.00 0.01 0.01 0.00 0.00 0.00 0.00 0.00 0.00 0.00 0.00 0.00 0.00 0.00 0.00 0.00 0.00 0.00 0.00 0.00 0.00 0.00 0.00 0.00 0.00 0.00 0.00 0.00 0.00 0.00
0.50 1.26 0.00 0.03 0.38 0.09 0.12 0.04 0.58 0.89 1.97 0.87 0.18 0.15 0.59 0.26 0.20 0.00 0.00 0.00 0.00 0.00 0.00 0.00 0.00 0.00 0.00 0.00 0.00 0.00 0.00 0.00 0.00 0.00 0.00 0.00 0.00 0.00 0.00 0.00 0.00 0.00 0.00 0.00
0.11 0.72 0.32 0.10 1.47 0.92 0.18 0.17 0.12 0.18 0.70 1.31 0.76 0.96 1.32 0.12 0.01 0.00 0.00 0.00 0.00 0.00 0.00 0.00 0.00 0.00 0.00 0.00 0.00 0.00 0.00 0.00 0.00 0.00 0.00 0.00 0.00 0.00 0.00 0.00 0.00 0.00 0.00 0.00
0.09 0.53 1.41 1.49 0.84 0.22 0.10 0.62 0.32 1.45 0.83 0.73 0.88 0.67 0.64 0.22 0.08 0.00 0.00 0.00 0.00 0.00 0.00 0.00 0.00 0.00 0.00 0.00 0.00 0.00 0.00 0.00 0.00 0.00 0.00 0.00 0.00 0.00 0.00 0.00 0.00 0.00 0.00 0.00
0.32 0.35 1.74 1.47 0.82 0.07 0.33 0.24 0.34 0.15 0.40 1.07 1.53 1.16 0.37 0.41 0.26 0.00 0.00 0.00 0.00 0.00 0.00 0.00 0.00 0.00 0.00 0.00 0.00 0.00 0.00 0.00 0.00 0.00 0.00 0.00 0.00 0.00 0.00 0.00 0.00 0.00 0.00 0.00
nan 0.24 0.74 1.32 1.22 1.07 0.89 0.36 0.13 0.29 2.90 1.36 0.91 0.75 0.53 0.45 0.43 0.15 0.14 0.01 0.00 0.00 0.00 0.00 0.00 0.00 0.00 0.00 0.00 0.00 0.00 0.00 0.00 0.00 0.00 0.00 0.00 0.00 0.00 0.00 0.00 0.00 0.00 0.00
0.13 1.14 0.48 0.77 0.77 1.14 1.25 0.69 0.28 0.52 0.95 1.01 0.99 0.80 0.69 0.57 0.39 0.45 0.41 0.07 0.02 0.01 0.00 0.00 0.00 0.00 0.00 0.00 0.00 0.00 0.00 0.00 0.00 0.00 0.00 0.00 0.00 0.00 0.00 0.00 0.00 0.00 0.01 0.06
0.12 1.23 0.48 0.87 0.75 1.11 1.09 0.55 0.43 0.25 0.34 0.43 0.61 0.69 0.69 0.58 0.18 0.35 0.46 0.16 0.11 0.03 0.03 0.01 0.00 0.00 0.00 0.00 0.00 0.00 0.00 0.00 0.00 0.00 0.00 0.00 0.00 0.00 0.01 0.05 0.11 0.22 0.53 0.65
0.29 0.78 2.05 3.65 0.52 0.35 2.53 1.51 0.79 0.94 0.80 0.43 0.77 1.73 1.30 1.17 0.58 0.49 0.40 0.23 0.28 0.37 0.17 0.26 0.25 0.12 0.08 0.06 0.02 0.06 0.07 0.01 0.00 0.01 0.01 0.01 0.01 0.06 0.15 0.11 0.12 0.33 0.48 0.34
0.26 0.68 1.08 4.30 1.94 7.14 1.87 1.02 0.96 1.79 1.10 1.00 0.76 1.21 1.46 1.67 1.05 0.81 0.58 0.32 0.37 0.42 0.48 0.41 0.37 0.26 0.30 0.09 0.16 0.04 0.01 0.02 0.04 0.10 0.10 0.07 0.05 0.18 0.19 0.16 0.25 0.29 0.28 0.28
0.16 0.45 4.52 6.51 3.71 0.79 0.20 1.23 1.39 1.01 1.60 1.47 1.20 1.08 1.66 0.86 0.08 1.22 1.31 0.88 0.95 0.68 0.65 0.57 0.58 0.60 0.21 0.33 0.22 0.15 0.22 0.13 0.12 0.28 0.31 0.32 0.25 0.28 0.22 0.22 0.22 0.25 0.24 0.23
0.08 0.17 0.61 5.42 5.38 4.38 1.15 0.53 0.25 0.56 1.64 1.81 2.17 1.94 1.32 0.02 0.82 2.32 2.14 1.03 1.03 0.81 0.61 0.57 0.46 0.36 0.26 0.33 0.15 0.08 0.09 0.10 0.14 0.16 0.17 0.19 0.20 0.21 0.22 0.17 0.17 0.18 0.14 0.12
2.28 3.19 5.37 4.21 4.30 2.00 0.59 0.11 0.00 1.02 1.75 2.18 2.03 1.93 0.26 0.47 0.89 1.52 0.87 0.63 0.61 0.52 0.53 0.36 0.30 0.29 0.29 0.27 0.28 0.21 0.17 0.20 0.13 0.11 0.07 0.07 0.08 0.15 0.06 0.08 0.06 0.10 0.12 0.06
1.09 2.50 4.94 3.37 4.41 5.21 0.30 0.00 0.47 1.25 1.21 1.46 1.17 0.81 0.66 1.06 1.05 0.76 0.59 0.60 0.43 0.41 0.23 0.22 0.08 0.05 0.05 0.03 0.02 0.04 0.04 0.05 0.07 0.09 0.11 0.14 0.26 0.16 0.14 0.50 0.25 0.43 0.32 0.35
0.95 0.34 1.01 0.45 1.07 0.57 0.49 0.52 0.68 0.77 0.76 0.76 0.40 0.28 0.11 0.07 0.13 0.03 0.02 0.01 0.00 0.00 0.00 0.01 0.02 0.03 0.03 0.07 0.07 0.09 0.10 0.10 0.17 0.37 0.62 0.57 0.46 0.39 0.37 0.63 0.36 0.70 0.47 0.70
0.07 0.01 0.25 0.33 0.25 0.43 0.54 0.31 0.32 0.33 0.11 0.03 0.00 0.00 0.01 0.01 0.00 0.00 0.00 0.00 0.00 0.01 0.03 0.04 0.08 0.10 0.09 0.07 0.09 0.07 0.10 0.15 0.84 0.81 0.38 0.26 0.35 0.24 0.28 0.48 0.57 0.88 0.76 0.68
0.07 0.03 0.06 0.19 0.15 0.28 0.17 0.09 0.12 0.17 0.16 0.04 0.00 0.00 0.00 0.00 0.00 0.00 0.02 0.03 0.02 0.03 0.05 0.08 0.10 0.09 0.09 0.09 0.10 0.21 0.20 0.30 0.40 0.49 0.26 0.35 0.50 0.54 0.31 0.29 0.54 0.46 0.21 0.61
0.03 0.05 0.13 0.25 0.11 0.09 0.04 0.01 0.00 0.00 0.01 0.01 0.01 0.01 0.01 0.01 0.01 0.02 0.04 0.03 0.04 0.06 0.08 0.12 0.16 0.14 0.14 0.21 0.25 0.38 0.58 0.53 0.56 0.26 0.47 0.46 0.47 0.44 0.41 0.44 0.50 nan nan nan
SL_Ratio
nan 7.0 3.8 6.7 nan nan 7.5 6.4 6.9 nan nan nan nan nan nan nan nan nan nan nan nan nan nan nan nan nan nan nan nan nan nan nan nan nan nan nan nan nan nan nan nan nan nan nan
4.3 5.3 nan nan nan nan 7.1 7.4 6.4 nan nan 5.0 nan nan nan nan nan nan nan nan nan nan nan nan nan nan nan nan nan nan nan nan nan nan nan nan nan nan nan nan nan nan nan nan
4.2 nan nan nan 3.9 6.9 7.2 6.6 7.5 6.7 nan nan 7.5 4.7 nan nan nan nan nan nan nan nan nan nan nan nan nan nan nan nan nan nan nan nan nan nan nan nan nan nan nan nan nan nan
5.0 nan nan 5.0 6.1 3.0 7.1 nan 7.5 4.0 4.9 6.4 5.0 4.8 nan nan nan nan nan nan nan nan nan nan nan nan nan nan nan nan nan nan nan nan nan nan nan nan nan nan nan nan nan nan
5.9 4.5 5.3 6.9 6.4 5.6 7.1 5.0 5.6 6.7 5.9 7.5 7.5 8.3 nan nan nan nan nan nan nan nan nan nan nan nan nan nan nan nan nan nan nan nan nan nan nan nan nan nan nan nan nan nan
5.0 nan 5.2 5.4 5.0 5.3 5.2 6.5 6.4 6.4 5.7 6.2 5.6 6.3 nan nan nan nan nan nan nan nan nan nan nan nan nan nan nan nan nan nan nan nan nan nan nan nan nan nan nan nan nan nan
4.4 4.6 4.0 5.0 6.0 4.8 5.0 6.6 6.2 6.0 6.5 6.3 nan 3.9 nan nan nan nan nan nan nan nan nan nan nan nan nan nan nan nan nan nan nan nan nan nan nan nan nan nan nan nan nan nan
5.8 5.2 5.4 3.8 6.3 7.8 6.7 6.9 6.4 8.3 7.0 6.2 10.0 5.2 6.7 nan nan nan nan nan nan nan nan nan nan nan nan nan nan nan nan nan nan nan nan nan nan nan nan nan nan nan nan nan
7.4 6.2 4.4 4.7 4.5 5.1 6.9 6.3 6.3 6.3 5.1 5.8 4.2 4.8 5.0 5.9 5.6 nan nan nan nan nan nan nan nan nan nan nan nan nan nan nan nan nan nan nan nan nan nan nan nan nan nan nan
7.5 8.4 5.0 4.4 4.0 4.1 6.0 6.0 6.1 4.7 6.8 7.7 6.0 7.3 7.7 5.9 4.3 nan nan nan nan nan nan nan nan nan nan nan nan nan nan nan nan nan nan nan nan nan nan nan nan nan nan nan
5.9 8.1 4.9 5.3 4.4 5.7 5.9 7.5 7.4 7.8 6.3 8.0 8.3 6.6 4.4 5.7 7.0 nan nan nan nan nan nan nan nan nan nan nan nan nan nan nan nan nan nan nan nan nan nan nan nan nan nan nan
6.2 8.1 6.7 6.0 4.9 4.8 5.0 6.7 7.9 5.6 6.2 5.8 6.5 7.3 4.1 6.7 3.6 nan nan nan nan nan nan nan nan nan nan nan nan nan nan nan nan nan nan nan nan nan nan nan nan nan nan nan
7.5 5.2 5.5 5.7 5.5 4.8 5.9 6.6 6.4 7.6 5.7 6.1 6.1 6.9 6.2 4.6 3.4 2.9 5.0 nan nan nan nan nan nan nan nan nan nan nan nan nan nan nan nan nan nan nan nan nan nan nan nan nan
nan 8.3 8.1 8.9 8.1 6.8 7.8 6.0 7.6 6.6 5.4 6.6 7.5 8.1 7.2 7.1 4.8 3.9 3.4 3.9 nan nan nan nan nan nan nan nan nan nan nan nan nan nan nan nan nan nan nan nan nan nan nan nan
7.5 6.0 8.5 7.8 7.7 7.0 6.5 6.9 7.6 8.3 7.3 6.5 7.8 8.2 8.2 7.6 6.2 3.8 2.7 4.5 4.3 3.1 nan nan nan nan nan nan nan nan nan nan nan nan nan nan nan nan nan nan nan 3.8 5.7 4.9
7.6 5.3 8.7 6.5 6.6 6.7 7.0 7.6 7.0 7.0 7.9 6.8 6.2 6.9 8.1 7.3 5.1 4.4 3.9 5.4 6.3 4.3 3.5 3.0 0.0 nan nan nan 5.0 nan nan nan nan nan nan nan nan 10.0 5.9 2.9 3.1 2.9 3.2 3.2
8.3 7.5 4.3 4.8 7.4 7.2 6.0 9.5 8.0 7.6 8.1 7.4 8.8 7.3 6.7 6.8 6.4 6.5 6.3 6.2 5.3 4.4 4.1 4.3 4.5 4.0 4.4 4.1 4.2 6.3 5.8 5.4 3.6 4.0 3.0 3.2 2.9 4.9 4.6 5.2 5.5 5.7 5.9 5.9
8.1 6.4 4.7 4.5 4.1 6.3 8.5 7.0 7.3 8.3 7.9 8.4 8.3 7.8 6.8 6.8 7.5 6.3 6.7 7.5 7.2 6.4 5.2 5.2 5.3 4.9 3.7 4.5 3.6 3.5 4.0 5.8 5.9 5.1 4.8 4.7 4.9 5.0 5.2 5.6 5.6 5.6 5.6 5.6
6.4 7.3 4.9 5.6 6.1 7.2 6.7 8.5 9.4 9.6 9.2 8.1 8.9 8.2 6.9 5.3 6.1 7.0 6.7 7.3 7.1 7.6 6.3 6.6 6.1 6.4 6.5 6.6 6.9 6.7 7.1 6.9 6.6 7.0 6.6 6.3 5.4 5.3 5.3 5.5 5.7 5.8 6.1 6.3
3.5 7.2 6.3 4.7 5.3 7.7 9.6 8.1 6.5 6.7 9.4 8.3 8.1 8.4 6.5 2.6 8.8 8.0 6.4 7.5 7.5 8.0 8.3 8.2 8.0 7.3 6.7 6.5 5.9 4.5 5.0 5.1 6.4 6.6 6.5 6.3 5.0 4.9 5.2 4.9 5.1 4.9 4.4 4.4
4.7 4.1 4.8 4.8 5.1 6.3 8.2 7.0 5.0 9.6 10.8 8.1 7.9 7.9 7.9 11.0 9.1 7.6 7.7 7.8 7.8 7.8 7.6 7.5 7.1 7.7 6.1 5.3 5.9 6.7 5.9 6.9 4.8 4.8 4.3 5.0 4.5 5.2 4.3 4.7 5.0 4.9 5.2 5.3
5.9 5.5 5.2 4.9 5.3 7.3 7.4 5.7 12.2 9.9 7.9 7.5 7.4 7.7 8.7 7.9 7.5 7.4 7.5 7.4 7.5 8.0 8.0 5.6 5.9 5.4 5.3 4.4 4.2 5.3 6.8 7.8 8.6 8.5 8.4 7.9 6.5 6.2 6.3 5.6 5.9 5.4 5.8 5.8
6.6 6.7 5.2 7.4 7.0 7.2 7.4 8.2 7.5 7.3 7.4 7.0 7.4 7.8 7.8 8.3 7.8 6.5 6.7 6.3 7.5 10.0 12.0 10.8 7.7 7.8 9.3 7.6 7.2 8.2 9.1 9.0 9.3 7.7 7.1 6.7 6.4 6.2 6.1 5.7 6.5 5.8 6.0 5.8
5.1 5.0 4.7 6.3 6.9 7.6 7.7 7.5 7.5 7.1 6.9 6.3 7.5 7.5 6.9 8.1 8.3 nan nan 0.0 nan 4.0 4.6 5.4 5.8 6.6 6.9 6.8 6.8 6.4 8.1 8.2 6.4 6.4 7.2 7.4 7.0 6.0 6.3 5.3 5.2 5.2 5.7 6.1
3.5 3.9 3.9 6.5 6.7 6.3 6.1 7.8 7.7 7.4 6.5 5.8 nan nan nan nan nan nan 3.8 4.2 4.0 5.4 6.3 7.0 6.9 7.2 7.9 8.1 8.0 7.6 8.0 7.6 6.9 6.7 8.2 7.2 6.3 6.0 7.0 6.7 5.9 6.2 6.4 5.8
4.7 5.4 3.8 5.9 7.2 7.3 7.6 6.4 nan 7.1 7.5 5.9 3.8 3.4 3.7 3.3 3.5 4.3 4.9 4.5 5.2 6.3 7.9 8.4 8.4 9.0 9.9 9.7 9.6 9.0 7.6 7.0 7.5 8.9 8.0 7.2 6.8 7.3 7.4 7.8 8.6 nan nan nan